This is the latest recevied weather packets stored in our database for station/object DK6OC-10. If no packets are shown the sender has not sent any weather packets the latest 10 day(s).
| Time | Temp. | Humidity | Pressure | Rain* | Wind** | Luminosity | Snow |
|---|---|---|---|---|---|---|---|
| 1777699855 | 20° C | 28% | 1015.5 hPa | - | - | - | - |
| 1777698055 | 20° C | 27% | 1015.3 hPa | - | - | - | - |
| 1777696255 | 20° C | 27% | 1015.3 hPa | - | - | - | - |
| 1777694455 | 20° C | 27% | 1015.4 hPa | - | - | - | - |
| 1777692655 | 20.56° C | 26% | 1015.6 hPa | - | - | - | - |
| 1777690855 | 20.56° C | 26% | 1015.7 hPa | - | - | - | - |
| 1777689055 | 21.11° C | 26% | 1015.9 hPa | - | - | - | - |
| 1777687255 | 21.11° C | 25% | 1015.9 hPa | - | - | - | - |
| 1777685455 | 21.11° C | 25% | 1016.1 hPa | - | - | - | - |
| 1777683655 | 21.67° C | 25% | 1016.4 hPa | - | - | - | - |
| 1777681855 | 21.67° C | 25% | 1016.7 hPa | - | - | - | - |
| 1777680054 | 22.22° C | 24% | 1017 hPa | - | - | - | - |
| 1777678254 | 22.22° C | 24% | 1017.2 hPa | - | - | - | - |
| 1777676454 | 22.78° C | 24% | 1017.3 hPa | - | - | - | - |
| 1777674655 | 22.78° C | 24% | 1017.3 hPa | - | - | - | - |
| 1777672854 | 23.33° C | 23% | 1017.4 hPa | - | - | - | - |
| 1777671054 | 23.33° C | 23% | 1017.4 hPa | - | - | - | - |
| 1777669254 | 23.33° C | 23% | 1017.4 hPa | - | - | - | - |
| 1777667454 | 23.89° C | 22% | 1017.5 hPa | - | - | - | - |
| 1777665654 | 23.89° C | 22% | 1017.5 hPa | - | - | - | - |
| 1777663854 | 24.44° C | 21% | 1017.4 hPa | - | - | - | - |
| 1777662054 | 25.56° C | 20% | 1017.4 hPa | - | - | - | - |
| 1777660253 | 26.11° C | 19% | 1017.4 hPa | - | - | - | - |
| 1777658453 | 26.67° C | 18% | 1017.2 hPa | - | - | - | - |
| 1777656653 | 26.67° C | 18% | 1017.2 hPa | - | - | - | - |
* Rain since midnight (hover to see other rain measurements)
** Current wind speed in m/s (hover to see current wind gust speed)